When you browse on this site, cookies collect data to enhance your experience and personalize the content and advertising you see.
Visit our Privacy Policy to learn more. By continuing to use the site, you agree to this use of cookies and data.
  • In United Kingdom
  • List of Countries
  • For 7 days
  • Water Temperature
  • Satellite Maps
  • Weather Map
  • Weather Widgets
  • user-avatar
    Login

    Hourly Weather Yakkabog

    Today, 21 March, Thursday

    Time Temperature Precipitation Wind Pressure Humidity
    00:00 +9°C° 0 mm 0 mps 713 mmHg 76%
    01:00 +8°C° 0 mm 0 mps 713 mmHg 76%
    02:00 +9°C° 0 mm 1 mps 713 mmHg 75%
    03:00 +9°C° 0 mm 1 mps 713 mmHg 74%
    04:00 +9°C° 0 mm 1 mps 713 mmHg 72%
    05:00 +10°C° 0.1 mm 1 mps 713 mmHg 70%
    06:00 +10°C° 0.1 mm 1 mps 713 mmHg 67%
    07:00 +11°C° 0.1 mm 1 mps 714 mmHg 64%
    08:00 +12°C° 0.1 mm 1 mps 714 mmHg 59%
    09:00 +13°C° 0.1 mm 1 mps 714 mmHg 54%
    10:00 +13°C° 0.1 mm 0 mps 714 mmHg 49%
    11:00 +15°C° 0.1 mm 1 mps 714 mmHg 47%
    12:00 +16°C° 0.1 mm 1 mps 714 mmHg 46%
    13:00 +16°C° 0.1 mm 1 mps 713 mmHg 44%
    14:00 +16°C° 0.1 mm 1 mps 713 mmHg 45%
    15:00 +16°C° 0.1 mm 1 mps 713 mmHg 45%
    16:00 +16°C° 0.1 mm 1 mps 713 mmHg 46%
    17:00 +15°C° 0 mm 1 mps 713 mmHg 49%
    18:00 +14°C° 0 mm 2 mps 713 mmHg 52%
    19:00 +13°C° 0 mm 2 mps 713 mmHg 55%
    20:00 +13°C° 0 mm 2 mps 713 mmHg 55%
    21:00 +13°C° 0 mm 2 mps 713 mmHg 54%
    22:00 +12°C° 0 mm 2 mps 713 mmHg 54%
    23:00 +12°C° 0 mm 2 mps 713 mmHg 52%

    Tomorrow, 22 March, Friday

    Time Temperature Precipitation Wind Pressure Humidity
    00:00 +12°C° 0 mm 2 mps 712 mmHg 50%
    01:00 +11°C° 0 mm 3 mps 712 mmHg 47%
    02:00 +12°C° 0 mm 2 mps 712 mmHg 46%
    03:00 +13°C° 0 mm 2 mps 712 mmHg 46%
    04:00 +13°C° 0 mm 2 mps 712 mmHg 45%
    05:00 +13°C° 0.1 mm 2 mps 712 mmHg 47%
    06:00 +13°C° 0.1 mm 2 mps 712 mmHg 49%
    07:00 +13°C° 0.1 mm 1 mps 712 mmHg 51%
    08:00 +14°C° 0 mm 2 mps 712 mmHg 46%
    09:00 +16°C° 0 mm 2 mps 712 mmHg 41%
    10:00 +18°C° 0 mm 3 mps 713 mmHg 37%
    11:00 +18°C° 0 mm 2 mps 712 mmHg 35%
    12:00 +19°C° 0 mm 2 mps 712 mmHg 33%
    13:00 +21°C° 0 mm 1 mps 712 mmHg 31%
    14:00 +21°C° 0 mm 1 mps 711 mmHg 32%
    15:00 +20°C° 0 mm 2 mps 711 mmHg 34%
    16:00 +19°C° 0 mm 2 mps 710 mmHg 35%
    17:00 +18°C° 0 mm 2 mps 710 mmHg 41%
    18:00 +17°C° 0 mm 2 mps 711 mmHg 48%
    19:00 +15°C° 0 mm 2 mps 711 mmHg 54%
    20:00 +15°C° 0.1 mm 2 mps 711 mmHg 57%
    21:00 +14°C° 0.1 mm 2 mps 711 mmHg 59%
    22:00 +14°C° 0.1 mm 2 mps 711 mmHg 62%
    23:00 +14°C° 0.1 mm 1 mps 711 mmHg 61%

    Day after tomorrow, 23 March, Saturday

    Time Temperature Precipitation Wind Pressure Humidity
    00:00 +14°C° 0.1 mm 1 mps 711 mmHg 61%
    01:00 +13°C° 0.1 mm 1 mps 711 mmHg 60%
    02:00 +13°C° 0.1 mm 1 mps 711 mmHg 62%
    03:00 +13°C° 0.1 mm 1 mps 710 mmHg 63%
    04:00 +11°C° 0.1 mm 0 mps 710 mmHg 65%
    05:00 +12°C° 0 mm 0 mps 711 mmHg 62%
    06:00 +13°C° 0 mm 1 mps 711 mmHg 59%
    07:00 +14°C° 0 mm 1 mps 712 mmHg 57%
    08:00 +14°C° 0.2 mm 2 mps 712 mmHg 61%
    09:00 +13°C° 0.2 mm 3 mps 712 mmHg 66%
    10:00 +13°C° 0.2 mm 4 mps 713 mmHg 71%
    11:00 +12°C° 1.1 mm 4 mps 712 mmHg 75%
    12:00 +12°C° 1.1 mm 3 mps 712 mmHg 79%
    13:00 +12°C° 1.1 mm 2 mps 712 mmHg 84%
    14:00 +13°C° 0.5 mm 2 mps 712 mmHg 78%
    15:00 +13°C° 0.5 mm 2 mps 712 mmHg 72%
    16:00 +14°C° 0.5 mm 1 mps 712 mmHg 67%
    17:00 +13°C° 0.1 mm 1 mps 713 mmHg 70%
    18:00 +12°C° 0.1 mm 1 mps 713 mmHg 72%
    19:00 +12°C° 0.1 mm 1 mps 713 mmHg 75%
    20:00 +11°C° 0 mm 1 mps 713 mmHg 73%
    21:00 +11°C° 0 mm 1 mps 713 mmHg 71%
    22:00 +11°C° 0 mm 1 mps 713 mmHg 70%
    23:00 +10°C° 0 mm 1 mps 713 mmHg 67%

    24 March, Sunday

    Time Temperature Precipitation Wind Pressure Humidity
    00:00 +9°C° 0 mm 2 mps 713 mmHg 65%
    01:00 +9°C° 0 mm 2 mps 713 mmHg 63%
    02:00 +9°C° 0 mm 2 mps 713 mmHg 61%
    03:00 +9°C° 0 mm 2 mps 713 mmHg 60%
    04:00 +8°C° 0 mm 2 mps 713 mmHg 58%
    05:00 +9°C° 0 mm 2 mps 713 mmHg 56%
    06:00 +10°C° 0 mm 2 mps 713 mmHg 54%
    07:00 +12°C° 0 mm 2 mps 713 mmHg 52%
    08:00 +14°C° 0 mm 2 mps 713 mmHg 45%
    09:00 +16°C° 0 mm 1 mps 713 mmHg 37%
    10:00 +19°C° 0 mm 1 mps 713 mmHg 30%
    11:00 +20°C° 0 mm 1 mps 713 mmHg 29%
    12:00 +21°C° 0 mm 1 mps 712 mmHg 28%
    13:00 +22°C° 0 mm 1 mps 712 mmHg 28%
    14:00 +22°C° 0 mm 1 mps 712 mmHg 28%
    15:00 +22°C° 0 mm 1 mps 711 mmHg 28%
    16:00 +22°C° 0 mm 1 mps 711 mmHg 28%
    17:00 +19°C° 0 mm 2 mps 711 mmHg 31%
    18:00 +18°C° 0 mm 3 mps 710 mmHg 35%
    19:00 +16°C° 0 mm 3 mps 710 mmHg 38%
    20:00 +14°C° 0 mm 4 mps 710 mmHg 37%
    21:00 +14°C° 0 mm 4 mps 710 mmHg 37%
    22:00 +13°C° 0 mm 4 mps 710 mmHg 36%
    23:00 +13°C° 0 mm 4 mps 709 mmHg 35%

    25 March, Monday

    Time Temperature Precipitation Wind Pressure Humidity
    00:00 +13°C° 0 mm 4 mps 709 mmHg 35%
    01:00 +13°C° 0 mm 4 mps 709 mmHg 35%
    02:00 +13°C° 0 mm 4 mps 709 mmHg 34%
    03:00 +13°C° 0 mm 5 mps 709 mmHg 34%
    04:00 +13°C° 0 mm 5 mps 708 mmHg 33%
    05:00 +14°C° 0 mm 5 mps 708 mmHg 34%
    06:00 +15°C° 0 mm 5 mps 708 mmHg 34%
    07:00 +15°C° 0 mm 5 mps 708 mmHg 35%
    08:00 +19°C° 0 mm 4 mps 708 mmHg 31%
    09:00 +21°C° 0 mm 4 mps 708 mmHg 27%
    10:00 +25°C° 0 mm 3 mps 708 mmHg 23%
    11:00 +26°C° 0 mm 3 mps 708 mmHg 22%
    12:00 +26°C° 0 mm 3 mps 708 mmHg 21%
    13:00 +27°C° 0 mm 2 mps 707 mmHg 20%
    14:00 +26°C° 0 mm 2 mps 707 mmHg 23%
    15:00 +26°C° 0 mm 2 mps 707 mmHg 26%
    16:00 +25°C° 0 mm 2 mps 707 mmHg 29%
    17:00 +23°C° 0 mm 2 mps 707 mmHg 30%
    18:00 +21°C° 0 mm 2 mps 708 mmHg 32%
    19:00 +19°C° 0 mm 3 mps 708 mmHg 34%
    20:00 +19°C° 0.1 mm 4 mps 708 mmHg 34%
    21:00 +19°C° 0.1 mm 5 mps 709 mmHg 35%
    22:00 +17°C° 0.1 mm 6 mps 709 mmHg 36%
    23:00 +17°C° 0.2 mm 6 mps 710 mmHg 40%

    26 March, Tuesday

    Time Temperature Precipitation Wind Pressure Humidity
    00:00 +16°C° 0.2 mm 5 mps 710 mmHg 43%
    01:00 +15°C° 0.2 mm 4 mps 710 mmHg 47%
    02:00 +15°C° 0 mm 4 mps 710 mmHg 50%
    03:00 +14°C° 0 mm 3 mps 711 mmHg 53%
    04:00 +14°C° 0 mm 3 mps 711 mmHg 56%
    05:00 +15°C° 0 mm 2 mps 711 mmHg 57%
    06:00 +15°C° 0 mm 2 mps 712 mmHg 58%
    07:00 +16°C° 0 mm 2 mps 712 mmHg 59%
    08:00 +18°C° 0 mm 2 mps 712 mmHg 52%
    09:00 +21°C° 0 mm 2 mps 712 mmHg 44%
    10:00 +24°C° 0 mm 3 mps 712 mmHg 37%
    11:00 +25°C° 0 mm 3 mps 712 mmHg 35%
    12:00 +27°C° 0 mm 4 mps 711 mmHg 33%
    13:00 +28°C° 0 mm 5 mps 711 mmHg 31%
    14:00 +27°C° 0 mm 5 mps 711 mmHg 32%
    15:00 +27°C° 0 mm 4 mps 710 mmHg 33%
    16:00 +27°C° 0 mm 4 mps 710 mmHg 34%
    17:00 +25°C° 0 mm 4 mps 710 mmHg 36%
    18:00 +23°C° 0 mm 4 mps 710 mmHg 38%
    19:00 +21°C° 0 mm 4 mps 710 mmHg 40%
    20:00 +21°C° 0 mm 3 mps 710 mmHg 41%
    21:00 +21°C° 0 mm 2 mps 710 mmHg 42%
    22:00 +20°C° 0 mm 2 mps 710 mmHg 43%
    23:00 +20°C° 0.2 mm 3 mps 709 mmHg 43%
    Show more